Back to catalog

STARLINK-35557

AliveCommunicationsVLEO
NORAD 66237·PAYLOAD·🇺🇸 United States

Launched Oct 29, 2025 from Cape Canaveral Space Force Station

Loading…

Next Passes (next 24 hours)

TLE

FreshSource: CelesTrak SupGP

Epoch: Sep 14, 2026, 14:55 UTC

1 66237C 25245D   26257.62201389  .00030799  00000+0  90964-3 0  2570
2 66237  53.1569 121.5262 0001216 104.5241 145.0222 15.34386412    15

Track STARLINK-35557 in real time with AllMySat

Download on the App Store